Weather History for Granbury, TX

Change the Weather History Date:

Monday, January 28, 2013

  Actual Average (KSEP) Record (KSEP)
Temperature  
Mean Temperature 72 °F -  
Max Temperature 80 °F 60 °F 86 °F (1975)
Min Temperature 64 °F 32 °F 10 °F (1948)
Cooling Degree Days 7    
Growing Degree Days 22 (Base 50)    
Moisture  
Dew Point 62 °F    
Average Humidity 72    
Maximum Humidity 94    
Minimum Humidity 48    
Precipitation  
Precipitation 0.00 in - - ()
Sea Level Pressure  
Sea Level Pressure 29.92 in    
Wind  
Wind Speed 11 mph (SE)    
Max Wind Speed 25 mph    
Max Gust Speed 30 mph    
Visibility 10 miles    
Events      
Averages and records for this station are not official NWS values.
T = Trace of Precipitation, MM = Missing Value Source: NWS Daily Summary

Daily Weather History Graph

Daily Weather History Graph

Search for Another Location

Airport:

Trip Planner

Search our weather history database for the weather conditions in past years. The results will help you decide how hot, cold, wet, or windy it might be!

Date:

Astronomy

Jan. 28, 2013 Rise Set
Actual Time 7:27 AM CST 6:01 PM CST
Civil Twilight 7:01 AM CST 6:27 PM CST
Nautical Twilight 6:32 AM CST 6:56 PM CST
Astronomical Twilight 6:03 AM CST 7:25 PM CST
Moon 7:47 PM CST (1/28) 8:02 AM CST (1/28)
Length of Visible Light 11h 25m
Length of Day
10h 33m
Full, 98% of the Moon is Illuminated
Jan 28
Full
Feb 3
Last Quarter
Feb 10
New
Feb 17
First Quarter
Feb 25
Full

Hourly Weather History & Observations

Time (CST) Temp. Heat Index Dew Point Humidity Pressure Visibility Wind Dir Wind Speed Gust Speed Precip Events Conditions
12:15 AM 68.0 °F - 62.6 °F 83% 29.99 in 10.0 mi SE 8.1 mph - N/A   Clear
12:35 AM 64.4 °F - 60.8 °F 88% 29.99 in 10.0 mi East 4.6 mph - N/A   Clear
12:55 AM 64.4 °F - 60.8 °F 88% 29.99 in 10.0 mi East 5.8 mph - N/A   Scattered Clouds
1:15 AM 64.4 °F - 60.8 °F 88% 29.99 in 10.0 mi East 9.2 mph - N/A   Scattered Clouds
1:35 AM 64.4 °F - 60.8 °F 88% 29.99 in 10.0 mi East 8.1 mph - N/A   Scattered Clouds
1:55 AM 64.4 °F - 60.8 °F 88% 30.00 in 10.0 mi East 8.1 mph - N/A   Scattered Clouds
2:15 AM 64.4 °F - 62.6 °F 94% 29.99 in 10.0 mi ESE 8.1 mph - N/A   Mostly Cloudy
2:35 AM 64.4 °F - 62.6 °F 94% 29.99 in 10.0 mi ESE 5.8 mph - N/A   Overcast
3:15 AM 64.4 °F - 62.6 °F 94% 29.99 in 10.0 mi SE 5.8 mph - N/A   Overcast
3:35 AM 64.4 °F - 62.6 °F 94% 29.99 in 10.0 mi SE 4.6 mph - N/A   Mostly Cloudy
3:55 AM 64.4 °F - 62.6 °F 94% 29.99 in 10.0 mi SE 5.8 mph - N/A   Mostly Cloudy
4:15 AM 66.2 °F - 62.6 °F 88% 29.99 in 10.0 mi SE 6.9 mph - N/A   Overcast
4:35 AM 66.2 °F - 62.6 °F 88% 29.98 in 10.0 mi SE 6.9 mph - N/A   Overcast
4:55 AM 66.2 °F - 62.6 °F 88% 29.98 in 10.0 mi SE 6.9 mph - N/A   Overcast
5:15 AM 68.0 °F - 62.6 °F 83% 29.97 in 10.0 mi SE 9.2 mph - N/A   Overcast
6:15 AM 68.0 °F - 62.6 °F 83% 29.97 in 10.0 mi SE 9.2 mph - N/A   Overcast
6:35 AM 68.0 °F - 62.6 °F 83% 29.97 in 10.0 mi SE 8.1 mph - N/A   Overcast
6:55 AM 68.0 °F - 62.6 °F 83% 29.98 in 10.0 mi SE 6.9 mph - N/A   Overcast
7:15 AM 68.0 °F - 62.6 °F 83% 29.99 in 10.0 mi ESE 5.8 mph - N/A   Overcast
7:35 AM 68.0 °F - 62.6 °F 83% 29.99 in 10.0 mi ESE 4.6 mph - N/A   Overcast
7:55 AM 68.0 °F - 62.6 °F 83% 29.99 in 10.0 mi SE 6.9 mph - N/A   Overcast
8:15 AM 68.0 °F - 62.6 °F 83% 29.99 in 10.0 mi SE 8.1 mph - N/A   Overcast
8:35 AM 69.8 °F - 62.6 °F 78% 29.99 in 10.0 mi SSE 10.4 mph 16.1 mph N/A   Overcast
8:55 AM 69.8 °F - 62.6 °F 78% 29.99 in 10.0 mi SSE 11.5 mph 16.1 mph N/A   Overcast
9:15 AM 69.8 °F - 62.6 °F 78% 29.99 in 10.0 mi SSE 11.5 mph 18.4 mph N/A   Overcast
9:35 AM 71.6 °F - 62.6 °F 73% 29.99 in 10.0 mi SSE 15.0 mph 23.0 mph N/A   Overcast
9:55 AM 71.6 °F - 62.6 °F 73% 30.00 in 10.0 mi SSE 13.8 mph 17.3 mph N/A   Overcast
10:15 AM 71.6 °F - 62.6 °F 73% 29.99 in 10.0 mi SSE 12.7 mph 20.7 mph N/A   Overcast
10:35 AM 71.6 °F - 62.6 °F 73% 29.99 in 10.0 mi SSE 12.7 mph 18.4 mph N/A   Overcast
10:55 AM 71.6 °F - 62.6 °F 73% 29.99 in 10.0 mi SSE 16.1 mph 23.0 mph N/A   Overcast
11:15 AM 73.4 °F - 62.6 °F 69% 29.98 in 10.0 mi South 17.3 mph 23.0 mph N/A   Overcast
11:35 AM 73.4 °F - 62.6 °F 69% 29.97 in 10.0 mi South 15.0 mph - N/A   Overcast
11:55 AM 75.2 °F - 62.6 °F 65% 29.96 in 10.0 mi SSE 16.1 mph 24.2 mph N/A   Overcast
12:15 PM 75.2 °F - 62.6 °F 65% 29.94 in 10.0 mi South 16.1 mph 24.2 mph N/A   Overcast
12:35 PM 77.0 °F - 62.6 °F 61% 29.92 in 10.0 mi South 23.0 mph 27.6 mph N/A   Overcast
12:55 PM 77.0 °F - 62.6 °F 61% 29.91 in 10.0 mi South 19.6 mph 23.0 mph N/A   Overcast
1:15 PM 77.0 °F - 60.8 °F 57% 29.90 in 10.0 mi South 19.6 mph 26.5 mph N/A   Overcast
1:35 PM 77.0 °F - 60.8 °F 57% 29.88 in 10.0 mi SSE 15.0 mph 21.9 mph N/A   Overcast
1:55 PM 78.8 °F - 60.8 °F 54% 29.87 in 10.0 mi SSE 21.9 mph 25.3 mph N/A   Overcast
2:15 PM 78.8 °F - 60.8 °F 54% 29.86 in 10.0 mi SSE 20.7 mph 27.6 mph N/A   Overcast
2:35 PM 78.8 °F - 60.8 °F 54% 29.86 in 10.0 mi SSE 16.1 mph - N/A   Overcast
2:55 PM 78.8 °F - 60.8 °F 54% 29.85 in 10.0 mi SSE 18.4 mph 27.6 mph N/A   Overcast
3:15 PM 78.8 °F - 60.8 °F 54% 29.85 in 10.0 mi SSE 18.4 mph 24.2 mph N/A   Overcast
3:35 PM 78.8 °F - 59.0 °F 51% 29.85 in 10.0 mi South 18.4 mph 26.5 mph N/A   Overcast
3:55 PM 78.8 °F - 59.0 °F 51% 29.85 in 10.0 mi South 25.3 mph 29.9 mph N/A   Overcast
4:15 PM 80.6 °F 81.1 °F 59.0 °F 48% 29.85 in 10.0 mi South 19.6 mph 28.8 mph N/A   Overcast
4:35 PM 78.8 °F - 59.0 °F 51% 29.85 in 10.0 mi SSE 13.8 mph 25.3 mph N/A   Scattered Clouds
5:15 PM 77.0 °F - 60.8 °F 57% 29.85 in 10.0 mi SSE 15.0 mph 24.2 mph N/A   Scattered Clouds
5:35 PM 77.0 °F - 59.0 °F 54% 29.84 in 10.0 mi SSE 20.7 mph 27.6 mph N/A   Scattered Clouds
5:55 PM 77.0 °F - 59.0 °F 54% 29.85 in 10.0 mi SSE 17.3 mph - N/A   Mostly Cloudy
6:15 PM 75.2 °F - 60.8 °F 61% 29.85 in 10.0 mi SSE 16.1 mph 21.9 mph N/A   Mostly Cloudy
6:35 PM 75.2 °F - 60.8 °F 61% 29.86 in 10.0 mi SSE 13.8 mph 20.7 mph N/A   Mostly Cloudy
6:55 PM 73.4 °F - 60.8 °F 65% 29.87 in 10.0 mi SSE 11.5 mph 20.7 mph N/A   Overcast
7:15 PM 73.4 °F - 60.8 °F 65% 29.86 in 10.0 mi SE 10.4 mph - N/A   Overcast
7:35 PM 73.4 °F - 60.8 °F 65% 29.86 in 10.0 mi SSE 12.7 mph 20.7 mph N/A   Scattered Clouds
7:55 PM 73.4 °F - 60.8 °F 65% 29.85 in 10.0 mi SE 15.0 mph 21.9 mph N/A   Clear
8:15 PM 73.4 °F - 60.8 °F 65% 29.85 in 10.0 mi SSE 13.8 mph 21.9 mph N/A   Clear
8:35 PM 71.6 °F - 60.8 °F 69% 29.86 in 10.0 mi SSE 13.8 mph 18.4 mph N/A   Clear
8:55 PM 71.6 °F - 60.8 °F 69% 29.86 in 10.0 mi SSE 13.8 mph - N/A   Clear
9:15 PM 71.6 °F - 62.6 °F 73% 29.86 in 10.0 mi SSE 15.0 mph 21.9 mph N/A   Clear
9:35 PM 71.6 °F - 62.6 °F 73% 29.87 in 10.0 mi SSE 13.8 mph 19.6 mph N/A   Clear
9:55 PM 71.6 °F - 62.6 °F 73% 29.87 in 10.0 mi SSE 13.8 mph - N/A   Scattered Clouds
10:15 PM 71.6 °F - 62.6 °F 73% 29.87 in 10.0 mi SSE 10.4 mph - N/A   Overcast
10:35 PM 71.6 °F - 62.6 °F 73% 29.86 in 10.0 mi SSE 12.7 mph 18.4 mph N/A   Mostly Cloudy
10:55 PM 71.6 °F - 62.6 °F 73% 29.85 in 10.0 mi SSE 12.7 mph 19.6 mph N/A   Scattered Clouds
11:15 PM 71.6 °F - 62.6 °F 73% 29.84 in 10.0 mi SE 13.8 mph 18.4 mph N/A   Scattered Clouds
11:35 PM 69.8 °F - 62.6 °F 78% 29.84 in 10.0 mi SSE 15.0 mph 20.7 mph N/A   Clear
11:55 PM 69.8 °F - 62.6 °F 78% 29.84 in 10.0 mi SSE 12.7 mph 24.2 mph N/A   Clear